EHI
25 31 37 35 30 28 27 26 25 24 22 19 17 16 16 16 15 14 14 13 13 12 11 11 10 9 9 7 6 5 4 3 2 1 2 5 7 9 10 11 10 8 5
25 30 36 36 32 28 26 25 24 23 21 19 16 15 14 14 14 13 11 11 11 11 10 9 8 8 8 7 6 5 3 3 3 2 3 5 7 8 9 10 9 7 6
23 26 32 34 32 27 25 24 24 22 20 18 16 14 13 13 12 11 9 8 8 9 8 8 7 7 7 7 6 4 3 3 3 3 3 5 7 8 9 9 7 6 5
20 22 26 29 28 25 24 24 23 20 19 18 16 14 13 12 12 10 8 7 8 9 9 8 6 5 5 5 5 4 3 3 4 4 2 3 7 10 10 8 5 5 5
18 19 22 23 22 21 21 21 20 18 18 18 17 14 12 11 10 10 9 8 9 10 10 8 5 3 2 3 2 2 2 3 3 2 1 2 5 10 11 8 5 5 6
17 17 18 17 15 16 17 17 16 16 17 17 16 13 10 8 6 6 7 7 9 10 9 6 4 1 1 1 0 1 1 1 1 1 1 1 3 5 7 7 5 4 5
15 14 14 12 10 11 13 14 13 14 16 16 14 12 9 6 4 4 4 5 7 8 8 6 4 2 1 1 1 1 1 0 0 0 1 1 1 2 3 3 3 3 2
13 11 9 8 8 8 10 12 11 11 13 14 13 10 8 5 3 2 3 4 5 6 5 5 5 4 2 2 3 3 3 1 0 0 1 1 1 1 1 1 1 1 1
10 8 6 6 7 7 9 10 9 10 12 12 10 9 8 6 2 1 1 3 4 3 3 3 4 4 3 1 2 5 5 3 1 0 0 0 0 0 0 0 0 0 0
9 7 5 6 6 7 8 9 9 11 12 12 9 9 10 7 3 0 1 3 3 3 2 2 2 2 2 1 2 5 6 5 3 1 0 0 0 0 0 0 0 0 0
9 7 5 5 6 6 8 10 12 13 13 13 11 10 10 8 3 1 1 2 2 2 2 2 2 1 0 0 1 4 4 4 3 2 1 0 0 0 0 0 0 0 0
9 8 6 5 5 6 7 10 13 14 13 13 11 9 8 6 3 1 0 0 1 2 3 3 2 1 0 0 0 1 1 1 1 2 1 0 0 0 0 0 0 0 0
11 9 7 6 6 6 7 9 11 11 11 11 10 8 6 4 3 2 1 0 0 1 2 2 1 0 0 0 0 0 0 0 0 1 1 0 0 0 0 0 0 0 0
12 10 7 6 7 7 7 8 9 9 9 9 9 7 5 4 3 3 2 1 1 0 1 1 0 0 0 0 0 0 0 0 0 0 0 0 0 0 0 0 0 0 0
13 9 6 5 6 7 6 6 6 6 7 7 7 5 3 3 2 2 2 2 1 0 0 0 0 0 0 0 0 0 0 0 0 0 0 0 0 0 0 0 0 0 0
12 8 4 4 4 4 4 4 3 3 3 3 2 2 1 1 1 1 1 1 1 0 0 0 0 0 0 0 1 0 0 0 0 0 0 0 0 0 0 0 0 0 0
8 6 3 1 1 1 2 2 2 1 0 0 0 0 0 0 0 0 0 0 0 0 0 0 0 0 0 0 1 1 0 0 0 0 0 0 0 0 0 0 0 0 0
5 3 1 0 0 0 0 1 1 1 0 0 0 0 0 0 0 0 0 0 0 0 0 0 0 0 0 0 1 1 1 0 0 0 0 0 0 0 0 0 0 0 0
2 1 0 0 0 0 0 0 0 0 0 0 0 0 0 0 0 0 0 0 0 0 0 0 0 0 1 1 1 2 2 1 0 0 0 0 0 0 0 0 0 0 0
1 0 0 0 0 0 0 0 0 0 0 0 0 0 0 0 0 0 0 0 0 0 0 0 0 1 2 2 2 2 2 1 0 0 0 0 0 0 0 0 0 0 0
0 0 0 0 0 0 0 0 0 0 0 0 0 0 0 0 0 0 0 0 0 0 0 0 0 1 2 3 2 1 1 0 0 0 0 0 0 0 0 0 0 0 0
0 0 0 0 0 0 0 0 0 0 0 0 0 0 0 0 0 0 0 0 0 0 0 0 0 1 2 3 1 0 0 0 0 0 0 0 0 0 0 0 0 0 0
0 0 0 0 0 0 0 0 0 0 0 0 0 0 0 0 0 0 0 0 0 0 0 1 1 1 3 2 1 0 0 0 0 0 0 0 0 0 0 0 0 0 0
0 0 0 0 0 0 0 0 0 0 0 0 0 0 0 0 0 0 0 0 0 0 1 2 2 3 3 2 1 0 0 0 0 0 0 0 0 0 0 0 0 0 0
0 0 0 0 0 0 0 0 0 0 0 0 0 0 0 0 0 1 1 1 0 1 1 3 3 3 2 1 0 0 0 0 0 0 0 0 0 0 0 0 0 0 0
0 0 0 0 0 0 0 0 0 0 0 0 0 0 0 0 1 2 2 2 1 2 2 3 3 2 1 0 0 0 0 0 0 0 0 0 0 0 0 0 0 0 0
Wind_Speed
4 3 2 2 2 2 1 1 1 1 1 1 1 1 1 1 1 1 2 2 2 2 2 3 3 3 2 2 2 1 2 2 2 2 1 2 2 2 3 4 3 4 4
4 4 3 3 3 2 1 1 1 1 0 0 1 1 2 1 1 1 2 2 2 2 2 2 3 2 2 2 2 2 2 2 2 3 2 2 3 3 3 3 3 3 3
4 4 3 3 2 2 2 2 1 1 1 0 0 1 2 2 2 2 2 2 2 2 2 2 2 2 2 2 2 2 2 2 2 2 3 2 2 2 3 3 2 2 3
3 4 3 3 3 3 2 2 1 1 1 0 0 1 1 1 2 3 3 2 2 2 2 2 2 2 2 3 2 2 2 2 2 2 3 2 2 2 2 2 1 1 2
2 3 4 3 3 3 2 2 1 1 1 0 0 1 1 1 2 3 3 2 2 2 2 2 1 1 2 3 3 2 2 2 2 2 3 2 2 1 2 2 2 1 1
2 2 3 3 3 3 3 2 1 1 1 0 0 1 1 2 3 3 4 3 3 2 2 2 1 1 2 2 4 4 4 3 3 3 3 3 2 2 1 2 2 2 2
2 3 3 4 3 3 3 2 1 1 1 0 0 0 1 1 3 3 4 3 3 2 2 2 3 2 1 1 2 3 3 5 6 5 4 3 3 2 2 2 2 2 3
2 2 2 3 3 3 3 2 1 1 0 1 1 1 0 1 2 2 4 3 3 2 2 2 2 2 3 3 3 2 2 3 4 3 3 3 3 2 2 2 2 2 1
1 1 2 2 2 2 2 2 1 1 1 1 2 2 1 1 1 2 2 3 3 3 2 2 2 1 2 3 3 3 2 2 3 3 3 3 3 3 3 2 2 1 2
1 1 1 1 2 2 2 2 2 2 2 2 2 2 2 1 1 1 1 2 3 2 1 0 2 2 2 2 2 2 3 3 3 3 2 2 2 3 3 3 2 2 2
1 1 1 1 2 3 2 2 2 2 2 2 3 3 2 2 3 3 3 2 3 3 2 1 1 1 2 3 3 2 3 4 3 3 2 2 2 2 2 2 2 2 3
1 1 1 1 3 3 2 2 3 3 3 4 3 3 3 3 3 3 4 4 3 3 2 2 1 2 3 4 3 3 4 4 3 3 2 2 2 2 1 1 2 2 3
1 1 2 2 2 2 3 3 3 3 3 3 3 3 2 2 2 4 5 5 5 3 2 3 3 4 4 4 5 5 3 3 3 3 2 2 1 2 1 1 2 2 3
2 2 2 2 2 2 2 2 3 2 2 3 3 2 1 1 0 0 1 2 3 3 3 3 4 5 5 5 3 2 2 3 2 2 2 1 1 1 2 1 2 2 2
2 2 2 2 2 1 1 1 1 0 1 2 2 1 1 1 1 1 1 1 2 2 3 3 3 2 2 2 1 2 2 2 2 2 2 2 2 1 2 1 1 1 1
3 2 3 3 2 2 2 1 2 1 1 0 1 1 1 0 2 1 2 3 4 4 3 3 3 3 3 2 2 1 1 1 1 2 1 1 2 2 1 1 1 1 1
3 2 3 3 3 3 3 3 2 1 1 2 1 2 2 3 3 3 3 4 5 3 3 3 3 3 3 2 1 1 1 1 1 1 1 1 2 2 1 1 1 1 1
4 3 4 3 3 3 3 3 3 3 3 2 3 4 5 5 5 4 2 2 3 3 3 3 3 2 2 2 1 1 1 0 1 1 1 1 2 2 2 2 1 1 2
4 3 3 3 3 3 3 3 3 3 3 3 3 3 4 5 4 4 2 3 3 2 3 3 2 1 1 1 1 0 1 1 1 1 1 2 2 2 2 2 1 1 2
4 4 4 4 4 3 3 3 3 2 2 2 2 2 2 3 3 3 3 2 2 2 2 2 1 0 0 1 1 0 1 1 1 1 1 2 2 2 2 2 2 1 1
3 3 4 5 4 3 3 3 2 2 2 2 2 2 3 3 2 2 2 2 2 2 1 1 1 1 1 1 1 2 2 2 2 2 2 2 2 2 2 1 1 1 1
4 3 3 3 3 3 3 2 2 2 2 2 1 2 4 3 2 1 1 1 1 1 1 1 1 1 1 1 1 1 2 2 2 2 2 2 2 2 2 1 1 1 1
4 3 3 3 3 2 3 3 2 2 2 1 1 0 1 1 0 0 0 1 0 0 0 0 1 1 1 1 1 1 1 1 2 3 3 2 2 2 2 1 1 1 1
4 3 3 2 2 2 2 2 2 2 2 1 1 0 0 0 0 1 1 0 0 0 0 0 1 1 1 1 1 2 2 2 3 3 4 3 3 2 2 2 2 2 1
3 3 2 2 2 2 2 2 2 2 2 1 1 1 1 0 1 1 0 0 0 0 1 1 1 1 2 2 2 2 2 2 3 4 4 4 3 2 2 2 2 2 2
3 2 2 2 1 1 2 2 2 1 1 1 1 1 1 1 1 1 1 1 1 1 1 1 2 2 2 2 3 2 2 2 3 4 4 4 3 2 3 2 3 2 2
Wind_Direction
149 147 138 141 146 153 145 116 95 68 56 75 40 340 316 311 317 313 310 315 304 303 299 296 291 285 288 283 279 283 266 235 246 273 260 232 232 247 228 227 207 198 202
156 155 154 155 152 150 142 127 99 64 59 44 5 332 326 334 353 330 310 314 308 306 309 306 301 305 295 281 284 274 270 251 234 259 262 246 238 233 226 225 221 209 203
163 157 154 158 160 160 165 158 162 175 213 199 18 339 342 349 351 330 308 303 312 320 320 316 318 321 310 301 281 267 263 268 246 251 263 254 249 235 230 236 235 225 234
151 153 161 174 177 176 173 171 164 184 206 158 348 338 340 1 358 332 320 322 320 323 328 327 317 317 313 302 289 280 273 269 270 269 271 265 257 242 216 223 241 232 254
165 165 172 185 180 176 170 166 155 219 203 81 3 2 341 1 358 350 326 321 321 326 331 317 314 334 324 315 306 295 290 274 270 268 269 275 263 249 225 224 231 236 253
202 183 172 183 176 174 175 165 157 142 77 11 37 1 341 358 7 10 346 320 321 325 319 312 284 261 299 292 297 288 275 265 267 269 269 271 270 256 239 237 226 231 254
204 196 181 180 176 180 181 150 146 147 138 187 226 255 81 7 346 353 343 310 302 300 294 297 308 325 332 308 293 292 284 270 256 255 259 261 266 259 244 252 239 246 259
207 192 178 175 173 169 150 142 145 145 205 228 222 254 195 351 351 337 316 280 277 287 291 294 299 320 337 325 302 308 297 288 268 262 264 265 263 256 239 239 239 259 282
226 210 182 172 169 168 160 159 170 197 231 241 230 226 218 180 297 300 299 287 283 285 280 309 316 344 345 327 315 306 304 308 323 315 281 266 260 263 242 233 233 233 253
242 262 237 188 183 179 169 181 197 207 220 234 243 242 227 186 229 264 266 286 294 289 284 305 41 14 348 333 316 310 308 307 312 313 292 274 254 247 238 228 239 241 255
253 242 214 200 188 177 173 188 208 221 230 236 235 233 221 205 208 217 217 257 293 300 307 316 13 352 322 317 302 292 288 297 296 277 273 267 258 247 233 236 240 241 253
245 231 230 224 221 191 178 203 217 222 232 237 233 226 209 196 215 213 212 232 272 295 304 311 337 310 305 300 285 287 295 301 286 275 272 276 276 275 259 249 252 254 250
236 220 227 230 217 195 200 213 220 222 236 241 240 238 220 191 194 216 219 237 257 261 289 305 292 282 281 270 260 277 285 277 281 287 281 273 264 258 251 246 260 267 264
212 209 227 227 206 197 212 222 225 227 237 247 256 259 243 188 182 211 228 231 241 246 266 283 278 272 267 278 272 258 257 275 282 284 285 276 268 256 255 246 252 252 258
218 220 231 232 214 213 209 273 245 231 271 272 288 289 298 339 14 1 315 298 299 300 292 269 266 264 256 250 244 239 246 256 271 281 300 310 299 282 281 275 253 287 280
219 222 233 227 207 212 202 181 38 178 189 155 355 312 311 216 198 253 302 297 288 284 273 267 264 259 262 259 248 254 256 276 296 296 304 318 315 309 311 327 320 308 286
227 223 243 242 221 214 207 203 203 218 234 223 225 230 232 236 247 259 276 293 286 268 251 262 261 263 269 266 258 256 267 304 299 303 300 303 302 305 306 305 307 318 305
234 221 246 254 243 225 217 217 211 207 214 221 221 221 223 230 238 249 274 300 273 240 243 259 263 258 264 275 280 294 292 310 313 311 317 316 311 309 308 301 295 313 311
241 241 242 258 258 240 237 241 234 214 211 212 201 207 223 225 236 245 231 252 264 261 260 262 277 282 284 286 282 313 317 316 325 320 323 315 314 313 307 306 305 299 300
236 246 250 259 261 254 253 251 243 225 215 211 203 197 182 194 213 218 216 240 261 269 273 281 290 339 359 316 308 329 345 346 330 318 305 303 307 303 298 297 305 316 327
247 231 235 255 260 268 271 267 262 255 239 229 209 172 178 214 215 199 201 220 241 267 291 312 335 358 12 354 2 4 10 3 347 331 322 318 315 306 301 302 321 324 313
251 242 231 250 261 267 276 274 267 269 269 264 258 177 183 215 221 214 211 209 213 256 310 323 323 347 5 11 24 24 20 5 342 331 325 318 312 312 322 317 335 337 327
251 248 241 244 251 247 254 263 269 268 271 277 280 247 195 243 269 341 309 321 250 231 231 303 319 355 29 32 34 34 26 355 320 313 306 295 301 309 306 292 299 316 317
255 255 246 238 241 255 265 270 274 280 278 270 280 277 244 234 270 266 285 326 342 322 309 38 14 41 51 22 33 47 38 4 327 311 310 293 292 295 293 287 284 283 275
258 257 254 250 245 251 266 275 277 272 270 268 267 286 297 290 277 278 327 336 336 1 12 34 39 44 59 37 42 50 39 18 356 335 312 299 304 316 314 311 315 311 303
268 259 253 256 253 251 252 260 268 276 283 289 277 275 291 300 327 17 9 339 336 30 32 40 28 30 50 66 64 67 47 11 347 326 310 298 297 304 312 307 306 301 294